Biloxi, MS

7:17 AM CST on February 23, 2018 (GMT -0600)
Keesler Air Force Base

Weather History for KBIX - May, 2014

Change the Weather History Date:

Sunday, May 25, 2014

  Actual Average Record
Temperature  
Mean Temperature 79 °F -  
Max Temperature 87 °F 84 °F 95 °F (1953)
Min Temperature 71 °F 69 °F 55 °F (1979)
Cooling Degree Days 14    
Growing Degree Days 29 (Base 50)    
Moisture  
Dew Point 68 °F    
Average Humidity 71    
Maximum Humidity 96    
Minimum Humidity 39    
Precipitation  
Precipitation 0.00 in - - ()
Sea Level Pressure  
Sea Level Pressure 30.08 in    
Wind  
Wind Speed 3 mph (SW)    
Max Wind Speed 13 mph    
Max Gust Speed -    
Visibility 10 miles    
Events      
Averages and records for this station are not official NWS values.
T = Trace of Precipitation, MM = Missing Value Source: NWS Daily Summary

Daily Weather History Graph

Daily Weather History Graph

Search for Another Location

Airport or City:

Trip Planner

Search our weather history database for the weather conditions in past years. The results will help you decide how hot, cold, wet, or windy it might be!

Date:

Astronomy

May. 25, 2014 Rise Set
Actual Time 5:56 AM CDT 7:49 PM CDT
Civil Twilight 5:29 AM CDT 8:16 PM CDT
Nautical Twilight 4:57 AM CDT 8:48 PM CDT
Astronomical Twilight 4:22 AM CDT 9:23 PM CDT
Moon 3:46 AM CDT (5/25) 5:01 PM CDT (5/25)
Length of Visible Light 14h 46m
Length of Day
13h 52m
Waning Crescent, 10% of the Moon is Illuminated
May 25
Waning Crescent
May 28
New
Jun 5
First Quarter
Jun 12
Full
Jun 19
Last Quarter

Hourly Weather History & Observations

Time (CDT) Temp. Heat Index Dew Point Humidity Pressure Visibility Wind Dir Wind Speed Gust Speed Precip Events Conditions
12:58 AM 75.6 °F - 70.5 °F 84% 30.08 in 10.0 mi Calm Calm - N/A   Mostly Cloudy
1:58 AM 74.1 °F - 70.0 °F 87% 30.07 in 10.0 mi Calm Calm - N/A   Clear
2:58 AM 72.7 °F - 69.6 °F 90% 30.07 in 10.0 mi Calm Calm - N/A   Partly Cloudy
3:58 AM 72.1 °F - 69.6 °F 92% 30.07 in 10.0 mi Calm Calm - N/A   Mostly Cloudy
4:58 AM 72.0 °F - 70.0 °F 93% 30.07 in 10.0 mi North 2.3 mph - N/A   Clear
5:58 AM 71.1 °F - 70.0 °F 96% 30.08 in 10.0 mi NNE 1.2 mph - N/A   Clear
6:58 AM 71.2 °F - 70.2 °F 96% 30.10 in 10.0 mi NNE 2.3 mph - N/A   Clear
7:58 AM 75.2 °F - 70.5 °F 85% 30.10 in 10.0 mi Variable 2.3 mph - N/A   Clear
8:58 AM 79.5 °F - 70.5 °F 74% 30.12 in 10.0 mi Variable 2.3 mph - N/A   Clear
9:58 AM 80.4 °F 83.8 °F 70.2 °F 71% 30.12 in 10.0 mi Variable 3.5 mph - N/A   Clear
10:58 AM 82.6 °F 86.1 °F 69.4 °F 64% 30.11 in 10.0 mi Variable 1.2 mph - N/A   Clear
11:58 AM 84.6 °F 88.8 °F 70.0 °F 61% 30.11 in 10.0 mi SW 5.8 mph - N/A   Clear
12:58 PM 85.8 °F 88.5 °F 66.9 °F 53% 30.10 in 10.0 mi South 8.1 mph - N/A   Partly Cloudy
1:58 PM 86.9 °F 87.8 °F 63.1 °F 45% 30.09 in 10.0 mi SSW 9.2 mph - N/A   Clear
2:58 PM 87.1 °F 87.5 °F 62.1 °F 43% 30.08 in 10.0 mi SSW 10.4 mph - N/A   Clear
3:58 PM 86.5 °F 85.9 °F 59.0 °F 39% 30.07 in 10.0 mi SSW 12.7 mph - N/A   Clear
4:58 PM 85.5 °F 85.0 °F 59.2 °F 41% 30.06 in 10.0 mi SW 10.4 mph - N/A   Clear
5:58 PM 83.8 °F 85.6 °F 64.9 °F 53% 30.05 in 10.0 mi SW 11.5 mph - N/A   Clear
6:58 PM 81.7 °F 84.0 °F 66.7 °F 60% 30.05 in 10.0 mi SW 8.1 mph - N/A   Clear
7:58 PM 77.9 °F - 68.4 °F 72% 30.06 in 10.0 mi SW 5.8 mph - N/A   Clear
8:58 PM 75.7 °F - 68.7 °F 79% 30.06 in 10.0 mi SW 5.8 mph - N/A   Clear
9:58 PM 76.5 °F - 68.4 °F 76% 30.08 in 10.0 mi SSW 4.6 mph - N/A   Clear
10:58 PM 77.0 °F - 68.7 °F 75% 30.10 in 10.0 mi WSW 3.5 mph - N/A   Clear
11:58 PM 75.0 °F - 68.0 °F 79% 30.09 in 10.0 mi SW 3.5 mph - N/A   Clear